This demonstration page uses our WeatherBlox Daily Observations layout. Learn more.

Left ArrowRight Arrow

39.92423, -83.80882

Hourly Observations for February 25, 2022

Temp ( °F °C ) Dew Point ( °F °C ) Humidity (%) Winds ( mph kmh ) Pressure ( in mb ) Visibility ( mi km ) Precip ( " mm )
12:16 am 00:16 Cloudy with Light Snow 32 0 N/A N/A NE 6 9 30.00 1016 3 4 0.00 0.00
12:22 am 00:22 Cloudy with Light Snow 32 0 N/A N/A N 5 7 30.02 1017 3 5 0.00 0.00
12:32 am 00:32 Cloudy with Light Snow 32 0 N/A N/A N 7 11 30.01 1016 3 4 0.00 0.00
12:42 am 00:42 Cloudy with Light Wintry Mix 32 0 N/A N/A NE 5 7 30.00 1016 4 6 0.00 0.00
12:56 am 00:56 Cloudy with Light Wintry Mix 32 0 N/A N/A NNE 5 7 29.98 1015 5 8 0.00 0.00
1:56 am 01:56 Cloudy with Light Wintry Mix 32 0 N/A N/A Calm 29.96 1015 6 10 0.00 0.00
2:56 am 02:56 Cloudy with Light Wintry Mix 32 0 N/A N/A W 6 9 29.97 1015 8 13 0.00 0.00
3:08 am 03:08 Cloudy with Light Wintry Mix 32 0 N/A N/A WNW 6 9 29.98 1015 8 13 0.00 0.00
3:56 am 03:56 Cloudy with Light Wintry Mix 32 0 N/A N/A W 9 15 29.99 1016 4 6 0.00 0.00
4:56 am 04:56 Cloudy 30 -1 N/A N/A W 12 19 30.02 1017 10 16 0.00 0.00
5:24 am 05:24 Cloudy with Light Snow 32 0 N/A N/A W 18 30 30.07 1018 7 11 0.00 0.00
5:31 am 05:31 Windy with Snow Likely 32 0 N/A N/A W 20 31 30.07 1018 9 14 0.00 0.00
5:56 am 05:56 Cloudy 32 0 32 0 100 100 W 23 37 30.08 1019 9 14 0.00 0.00
6:05 am 06:05 Cloudy 32 0 32 0 100 100 W 22 35 30.11 1020 10 16 0.00 0.00
6:56 am 06:56 Cloudy 31 -0.6 30 -1.1 96 96 W 17 28 30.15 1021 10 16 0.00 0.00
7:56 am 07:56 Cloudy 29 -1.7 29 -1.7 100 100 WNW 17 28 30.22 1023 10 16 0.00 0.00
8:56 am 08:56 Cloudy 28 -2.2 27 -2.8 96 96 WNW 21 33 30.29 1026 10 16 0.00 0.00
9:12 am 09:12 Cloudy 27 -3 27 -3 100 100 WNW 22 35 30.33 1027 10 16 0.00 0.00
9:56 am 09:56 Cloudy 27 -2.8 26 -3.3 96 96 WNW 16 26 30.32 1027 10 16 0.00 0.00
10:56 am 10:56 Cloudy with Light Snow 27 -2.8 24 -4.4 89 89 WNW 15 24 30.37 1028 9 14 0.00 0.00
11:56 am 11:56 Cloudy with Light Snow 27 -2.8 24 -4.4 89 89 WNW 14 22 30.39 1029 9 14 0.00 0.00
12:56 pm 12:56 Cloudy with Light Snow 27 -2.8 23 -5 85 85 WNW 13 20 30.41 1030 9 14 0.00 0.00
1:56 pm 13:56 Cloudy with Light Snow 27 -2.8 25 -3.9 92 92 NW 12 19 30.42 1030 9 14 0.00 0.00
2:56 pm 14:56 Cloudy 28 -2.2 24 -4.4 85 85 WNW 15 24 30.42 1030 10 16 0.00 0.00
3:56 pm 15:56 Cloudy with Light Snow 27 -2.8 23 -5 85 85 NW 7 11 30.45 1031 9 14 0.00 0.00
4:07 pm 16:07 Cloudy 27 -3 23 -5 86 86 WNW 9 15 30.48 1032 10 16 0.00 0.00
4:56 pm 16:56 Cloudy with Light Snow 27 -2.8 24 -4.4 89 89 NW 7 11 30.47 1032 8 13 0.00 0.00
5:24 pm 17:24 Cloudy with Light Snow 27 -3 25 -4 93 93 NW 5 7 30.50 1033 6 10 0.00 0.00
5:56 pm 17:56 Cloudy with Light Snow 27 -2.8 26 -3.3 96 96 WNW 3 6 30.48 1032 7 11 0.00 0.00
6:06 pm 18:06 Cloudy with Light Snow 27 -3 27 -3 100 100 NW 7 11 30.51 1033 8 13 0.00 0.00
6:56 pm 18:56 Cloudy with Light Snow 27 -2.8 26 -3.3 96 96 WNW 6 9 30.50 1033 9 14 0.00 0.00
7:56 pm 19:56 Cloudy with Light Snow 26 -3.3 26 -3.3 100 100 NW 5 7 30.52 1033 9 14 0.00 0.00
8:56 pm 20:56 Cloudy with Light Snow 26 -3.3 26 -3.3 100 100 WNW 5 7 30.51 1033 9 14 0.00 0.00
9:20 pm 21:20 Cloudy with Light Snow 27 -3 27 -3 100 100 NNW 5 7 30.54 1034 7 11 0.00 0.00
9:31 pm 21:31 Cloudy with Light Snow 27 -3 27 -3 100 100 NNW 3 6 30.54 1034 9 14 0.00 0.00
9:56 pm 21:56 Cloudy with Light Snow 26 -3.3 25 -3.9 96 96 NW 5 7 30.52 1034 9 14 0.00 0.00
10:56 pm 22:56 Cloudy with Light Snow 26 -3.3 26 -3.3 100 100 N 3 6 30.52 1034 9 14 0.00 0.00
11:56 pm 23:56 Cloudy with Light Snow 26 -3.3 25 -3.9 96 96 WNW 6 9 30.52 1034 9 14 0.00 0.00

Powered by AerisWeather